GW3215 Weather Reports


Display with metric or nautical units.
time (UTC)temp
F
wind
direction
speed
MPH
gust
MPH
rain 1hr
in
rain 24hr
in
rain mn
in
humidity
%
barometer
mb
20260905191507 98 5 6.0 18.0 0.00 0.00 0.00 49 1012.4
20260905190004 99 123 1.0 5.0 0.00 0.00 0.00 47 1011.7
20260905184509 100 210 1.0 4.0 0.00 0.00 0.00 46 1011.6
20260905183015 100 152 0.0 4.0 0.00 0.00 0.00 48 1011.7
20260905181503 99 84 1.0 4.0 0.00 0.00 0.00 51 1012.2
20260905180003 94 185 0.0 2.0 0.00 0.00 0.00 63 1012.6
20260905174504 97 248 1.0 4.0 0.00 0.00 0.00 51 1012.9
20260905173013 98 213 0.0 5.0 0.00 0.00 0.00 50 1012.8
20260905171515 99 90 1.0 4.0 0.00 0.00 0.00 50 1012.9
20260905170023 96 316 0.0 5.0 0.00 0.00 0.00 53 1013.1
20260905164505 99 28 0.0 3.0 0.00 0.00 0.00 52 1013.5
20260905163007 97 294 1.0 4.0 0.00 0.00 0.00 55 1013.8
20260905161511 95 301 0.0 3.0 0.00 0.00 0.00 57 1014.0
20260905160018 93 144 1.0 5.0 0.00 0.00 0.00 58 1014.0
20260905154527 93 91 0.0 4.0 0.00 0.00 0.00 63 1014.1
20260905153006 91 190 0.0 3.0 0.00 0.00 0.00 65 1014.5
20260905151510 90 111 0.0 3.0 0.00 0.00 0.00 67 1014.4
20260905150015 90 239 0.0 5.0 0.00 0.00 0.00 69 1014.5
20260905144518 87 352 0.0 0.0 0.00 0.00 0.00 74 1014.5
20260905143033 85 308 0.0 0.0 0.00 0.00 0.00 77 1014.5
20260905141521 82 146 0.0 0.0 0.00 0.00 0.00 80 1014.7
20260905140012 81 30 0.0 1.0 0.00 0.00 0.00 83 1014.8
20260905134519 80 10 0.0 0.0 0.00 0.00 0.00 86 1014.9
20260905133023 79 226 0.0 0.0 0.00 0.00 0.00 88 1014.8
20260905131529 78 5 0.0 0.0 0.00 0.00 0.00 90 1014.9
20260905130008 77 267 0.0 0.0 0.00 0.00 0.00 90 1014.7
20260905124519 77 230 0.0 0.0 0.00 0.00 0.00 90 1014.8
20260905123024 76 184 0.0 0.0 0.00 0.00 0.00 91 1014.7
20260905121526 76 164 0.0 0.0 0.00 0.00 0.00 92 1014.7
20260905120030 75 213 0.0 0.0 0.00 0.00 0.00 93 1014.6
20260905114510 74 205 0.0 0.0 0.00 0.00 0.00 92 1014.5
20260905113014 74 184 0.0 0.0 0.00 0.00 0.00 92 1014.3
20260905111523 74 159 0.0 0.0 0.00 0.00 0.00 91 1014.1
20260905110006 74 156 0.0 0.0 0.00 0.00 0.00 91 1013.9
20260905104510 75 197 0.0 0.0 0.00 0.00 0.00 91 1013.8
20260905103016 75 197 0.0 0.0 0.00 0.00 0.00 90 1013.6
20260905101502 74 178 0.0 0.0 0.00 0.00 0.00 92 1013.6
20260905100004 74 182 0.0 0.0 0.00 0.00 0.00 92 1013.6
20260905094505 74 182 0.0 0.0 0.00 0.00 0.00 91 1013.7
20260905093008 74 234 0.0 0.0 0.00 0.00 0.00 91 1013.6
20260905091515 75 193 0.0 0.0 0.00 0.00 0.00 92 1013.6
20260905090016 74 196 0.0 0.0 0.00 0.00 0.00 91 1013.7
20260905084505 75 134 0.0 3.0 0.00 0.00 0.00 91 1013.7
20260905083012 74 224 0.0 2.0 0.00 0.00 0.00 91 1013.7
20260905081512 74 186 0.0 1.0 0.00 0.00 0.00 91 1013.9
20260905080018 74 250 0.0 2.0 0.00 0.00 0.00 90 1014.1
20260905074528 75 238 0.0 2.0 0.00 0.00 0.00 91 1014.1
20260905073007 75 178 0.0 1.0 0.00 0.00 0.00 89 1014.1
20260905071517 75 178 0.0 2.0 0.00 0.00 0.00 89 1014.0
20260905070018 75 182 0.0 0.0 0.00 0.00 0.00 87 1014.1
20260905064525 76 182 0.0 1.0 0.00 0.00 0.00 87 1014.3
20260905063034 76 225 0.0 2.0 0.00 0.00 0.00 86 1014.3
20260905061509 77 248 0.0 2.0 0.00 0.00 0.00 84 1014.5
20260905060012 78 174 0.0 2.0 0.00 0.00 0.00 84 1014.5
20260905054530 77 227 0.0 3.0 0.00 0.00 0.00 84 1014.5